Location: Berville
(49.1893°N, 2.0748°E)
Time: 10:27:25
(UTC+00:00)

Cosmos 44 Rocket - Pass Details

Date: 08 February 2023
Orbit: 646 x 742 km, 65.1° (Epoch: 30 March)

Event Time Altitude Azimuth Distance (km) Brightness Sun altitude
Rises 18:06:53 0° 211° (SSW) 2,955 7.2 -11.4°
Reaches altitude 10° 18:09:09 10° 210° (SSW) 2,056 6.3 -11.8°
Maximum altitude 18:13:47 75° 125° (SE) 691 3.1 -12.5°
Enters shadow 18:18:16 12° 42° (NE) 1,999 5.2 -13.2°
